sat.trackr.live / text

‹ back to catalog

KUIPER-00023

NORAD 63737 · 2025-088P

PAYLOAD ACTIVE UNKNOWN

§ Identity

Operator
Country
US
Launch date
2025-04-28
Launch site
AFETR
Launch vehicle
Mass (kg)
RCS (m²)

External: N2YO · Heavens-Above · Gunter

§ Orbital elements

Epoch: 2026-05-25T05:29:06.368352Z

Period
97.30 min
Inclination
51.8997°
Eccentricity
0.0000707
Mean motion
14.79925782 rev/d
Perigee alt
629.1 km
Apogee alt
630.1 km
Semi-major
7,007.7 km
B*
2.2288e-4
RAAN
127.0920°
Arg perigee
66.6060°
Mean anomaly
293.4977°
Rev number
5,909

§ Raw data

KUIPER-000231 63737U 25088P   26145.22854593  .00001478  00000+0  22288-3 0  99992 63737  51.8997 127.0920 0000707  66.6060 293.4977 14.79925782 59094

JSON: /api/v1/satellites/63737 · /tle

For live sub-satellite position, see the globe view (requires WebGL).

§ Visibility from observer

Set your observer location to see the next 7 days of passes ≥ 10°. The values pass through the URL so the page stays shareable.

No JS? Fill the form by hand. The geolocation button needs JavaScript.